• In Uzbekistan
  • List of Countries
  • For 7 days
  • Water Temperature
  • Satellite Maps
  • Weather Map
  • Weather Widgets
  • user-avatar
    Login

    Hourly Weather Procisne

    Today, 24 April, Tuesday

    Time Temperature Precipitation Wind Pressure Humidity
    00:00 +13°C° 0.8 mm 2 mps 711 mmHg 88%
    01:00 +13°C° 0.8 mm 2 mps 711 mmHg 90%
    02:00 +13°C° 0.8 mm 2 mps 711 mmHg 92%
    03:00 +13°C° 0.7 mm 1 mps 712 mmHg 93%
    04:00 +12°C° 0.7 mm 1 mps 712 mmHg 94%
    05:00 +12°C° 0.7 mm 1 mps 712 mmHg 95%
    06:00 +13°C° 0.2 mm 1 mps 712 mmHg 94%
    07:00 +13°C° 0.2 mm 2 mps 712 mmHg 93%
    08:00 +14°C° 0.2 mm 2 mps 713 mmHg 92%
    09:00 +14°C° 0.2 mm 2 mps 713 mmHg 88%
    10:00 +15°C° 0.2 mm 2 mps 713 mmHg 84%
    11:00 +16°C° 0.2 mm 2 mps 714 mmHg 79%
    12:00 +17°C° 0.1 mm 2 mps 714 mmHg 73%
    13:00 +18°C° 0.1 mm 2 mps 714 mmHg 66%
    14:00 +19°C° 0.1 mm 3 mps 714 mmHg 60%
    15:00 +19°C° 0 mm 2 mps 714 mmHg 59%
    16:00 +19°C° 0 mm 2 mps 713 mmHg 58%
    17:00 +19°C° 0 mm 2 mps 713 mmHg 57%
    18:00 +17°C° 0 mm 2 mps 713 mmHg 64%
    19:00 +15°C° 0 mm 1 mps 713 mmHg 72%
    20:00 +12°C° 0 mm 0 mps 712 mmHg 79%
    21:00 +12°C° 0 mm 1 mps 713 mmHg 80%
    22:00 +12°C° 0 mm 1 mps 713 mmHg 81%
    23:00 +12°C° 0 mm 1 mps 713 mmHg 82%

    Tomorrow, 25 April, Wednesday

    Time Temperature Precipitation Wind Pressure Humidity
    00:00 +12°C° 0 mm 1 mps 713 mmHg 84%
    01:00 +11°C° 0 mm 1 mps 713 mmHg 85%
    02:00 +11°C° 0 mm 1 mps 713 mmHg 86%
    03:00 +11°C° 0 mm 1 mps 713 mmHg 88%
    04:00 +11°C° 0 mm 1 mps 713 mmHg 89%
    05:00 +11°C° 0 mm 1 mps 713 mmHg 91%
    06:00 +12°C° 0 mm 1 mps 713 mmHg 88%
    07:00 +14°C° 0 mm 1 mps 713 mmHg 84%
    08:00 +15°C° 0 mm 1 mps 714 mmHg 81%
    09:00 +16°C° 0 mm 2 mps 714 mmHg 77%
    10:00 +17°C° 0 mm 2 mps 714 mmHg 73%
    11:00 +18°C° 0 mm 3 mps 714 mmHg 68%
    12:00 +19°C° 0 mm 3 mps 713 mmHg 66%
    13:00 +19°C° 0 mm 4 mps 713 mmHg 63%
    14:00 +20°C° 0 mm 4 mps 712 mmHg 61%
    15:00 +20°C° 0 mm 5 mps 712 mmHg 59%
    16:00 +21°C° 0 mm 5 mps 712 mmHg 57%
    17:00 +21°C° 0 mm 5 mps 712 mmHg 55%
    18:00 +19°C° 0 mm 5 mps 711 mmHg 61%
    19:00 +18°C° 0 mm 4 mps 711 mmHg 67%
    20:00 +17°C° 0 mm 4 mps 711 mmHg 73%
    21:00 +15°C° 0.1 mm 4 mps 711 mmHg 77%
    22:00 +15°C° 0.1 mm 4 mps 711 mmHg 81%
    23:00 +14°C° 0.1 mm 4 mps 711 mmHg 85%

    Day after tomorrow, 26 April, Thursday

    Time Temperature Precipitation Wind Pressure Humidity
    00:00 +14°C° 0.2 mm 3 mps 711 mmHg 86%
    01:00 +13°C° 0.2 mm 3 mps 711 mmHg 87%
    02:00 +13°C° 0.2 mm 3 mps 711 mmHg 88%
    03:00 +13°C° 0 mm 3 mps 711 mmHg 90%
    04:00 +13°C° 0 mm 2 mps 711 mmHg 91%
    05:00 +12°C° 0 mm 2 mps 711 mmHg 93%
    06:00 +13°C° 0 mm 2 mps 711 mmHg 90%
    07:00 +15°C° 0 mm 2 mps 712 mmHg 86%
    08:00 +16°C° 0 mm 2 mps 712 mmHg 83%
    09:00 +17°C° 0.2 mm 3 mps 712 mmHg 76%
    10:00 +18°C° 0.2 mm 3 mps 713 mmHg 69%
    11:00 +19°C° 0.2 mm 3 mps 713 mmHg 62%
    12:00 +20°C° 0.5 mm 3 mps 713 mmHg 60%
    13:00 +20°C° 0.5 mm 3 mps 713 mmHg 57%
    14:00 +21°C° 0.5 mm 2 mps 712 mmHg 55%
    15:00 +20°C° 0.6 mm 2 mps 712 mmHg 58%
    16:00 +19°C° 0.6 mm 2 mps 712 mmHg 62%
    17:00 +19°C° 0.6 mm 2 mps 712 mmHg 66%
    18:00 +17°C° 0.6 mm 2 mps 712 mmHg 72%
    19:00 +15°C° 0.6 mm 2 mps 712 mmHg 78%
    20:00 +13°C° 0.6 mm 2 mps 712 mmHg 83%
    21:00 +13°C° 0.2 mm 2 mps 712 mmHg 84%
    22:00 +12°C° 0.2 mm 2 mps 713 mmHg 84%
    23:00 +12°C° 0.2 mm 2 mps 713 mmHg 84%

    27 April, Friday

    Time Temperature Precipitation Wind Pressure Humidity
    00:00 +10°C° 0.1 mm 2 mps 713 mmHg 85%
    01:00 +10°C° 0.1 mm 2 mps 713 mmHg 86%
    02:00 +9°C° 0.1 mm 2 mps 713 mmHg 87%
    03:00 +9°C° 0.3 mm 2 mps 713 mmHg 89%
    04:00 +9°C° 0.3 mm 2 mps 714 mmHg 90%
    05:00 +9°C° 0.3 mm 1 mps 714 mmHg 91%
    06:00 +9°C° 0 mm 2 mps 714 mmHg 86%
    07:00 +9°C° 0 mm 2 mps 715 mmHg 80%
    08:00 +10°C° 0 mm 3 mps 715 mmHg 75%
    09:00 +11°C° 0 mm 3 mps 715 mmHg 66%
    10:00 +12°C° 0 mm 3 mps 716 mmHg 58%
    11:00 +13°C° 0 mm 3 mps 716 mmHg 49%
    12:00 +15°C° 0 mm 2 mps 716 mmHg 46%
    13:00 +16°C° 0 mm 2 mps 716 mmHg 43%
    14:00 +17°C° 0 mm 2 mps 716 mmHg 40%
    15:00 +16°C° 0 mm 2 mps 716 mmHg 42%
    16:00 +16°C° 0 mm 2 mps 715 mmHg 43%
    17:00 +16°C° 0 mm 2 mps 715 mmHg 45%
    18:00 +14°C° 0 mm 2 mps 715 mmHg 52%
    19:00 +12°C° 0 mm 2 mps 715 mmHg 60%
    20:00 +9°C° 0 mm 2 mps 715 mmHg 67%
    21:00 +8°C° 0 mm 2 mps 715 mmHg 69%
    22:00 +8°C° 0 mm 2 mps 715 mmHg 71%
    23:00 +7°C° 0 mm 2 mps 715 mmHg 73%

    28 April, Saturday

    Time Temperature Precipitation Wind Pressure Humidity
    00:00 +7°C° 0 mm 2 mps 715 mmHg 74%
    01:00 +7°C° 0 mm 2 mps 715 mmHg 76%
    02:00 +6°C° 0 mm 2 mps 715 mmHg 77%
    03:00 +6°C° 0 mm 2 mps 714 mmHg 78%
    04:00 +6°C° 0 mm 2 mps 714 mmHg 79%
    05:00 +6°C° 0 mm 2 mps 714 mmHg 80%
    06:00 +9°C° 0 mm 2 mps 714 mmHg 74%
    07:00 +12°C° 0 mm 2 mps 714 mmHg 69%
    08:00 +14°C° 0 mm 2 mps 714 mmHg 64%
    09:00 +16°C° 0 mm 2 mps 714 mmHg 61%
    10:00 +18°C° 0 mm 3 mps 714 mmHg 59%
    11:00 +20°C° 0 mm 3 mps 715 mmHg 57%
    12:00 +21°C° 0.3 mm 3 mps 714 mmHg 58%
    13:00 +21°C° 0.3 mm 3 mps 714 mmHg 59%
    14:00 +22°C° 0.3 mm 3 mps 713 mmHg 61%
    15:00 +22°C° 0.5 mm 3 mps 713 mmHg 63%
    16:00 +21°C° 0.5 mm 3 mps 713 mmHg 66%
    17:00 +21°C° 0.5 mm 3 mps 713 mmHg 68%
    18:00 +19°C° 0.3 mm 2 mps 712 mmHg 75%
    19:00 +17°C° 0.3 mm 2 mps 712 mmHg 82%
    20:00 +16°C° 0.3 mm 2 mps 712 mmHg 89%
    21:00 +15°C° 0 mm 2 mps 712 mmHg 90%
    22:00 +15°C° 0 mm 2 mps 712 mmHg 90%
    23:00 +14°C° 0 mm 2 mps 712 mmHg 91%

    29 April, Sunday

    Time Temperature Precipitation Wind Pressure Humidity
    00:00 +14°C° 0.1 mm 2 mps 712 mmHg 91%
    01:00 +14°C° 0.1 mm 2 mps 712 mmHg 90%
    02:00 +14°C° 0.1 mm 2 mps 712 mmHg 90%
    03:00 +14°C° 0 mm 2 mps 712 mmHg 90%
    04:00 +14°C° 0 mm 2 mps 712 mmHg 90%
    05:00 +14°C° 0 mm 2 mps 712 mmHg 90%
    06:00 +15°C° 0 mm 2 mps 712 mmHg 86%
    07:00 +17°C° 0 mm 2 mps 712 mmHg 81%
    08:00 +18°C° 0 mm 2 mps 712 mmHg 77%
    09:00 +20°C° 0.1 mm 2 mps 712 mmHg 70%
    10:00 +21°C° 0.1 mm 2 mps 712 mmHg 62%
    11:00 +22°C° 0.1 mm 3 mps 712 mmHg 55%
    12:00 +24°C° 0.1 mm 3 mps 712 mmHg 53%
    13:00 +24°C° 0.1 mm 3 mps 712 mmHg 52%
    14:00 +25°C° 0.1 mm 3 mps 711 mmHg 50%
    15:00 +25°C° 0 mm 3 mps 711 mmHg 52%
    16:00 +24°C° 0 mm 3 mps 711 mmHg 53%
    17:00 +24°C° 0 mm 3 mps 710 mmHg 55%
    18:00 +21°C° 0.1 mm 2 mps 710 mmHg 62%
    19:00 +19°C° 0.1 mm 2 mps 710 mmHg 70%
    20:00 +17°C° 0.1 mm 2 mps 710 mmHg 78%
    21:00 +16°C° 0.1 mm 2 mps 710 mmHg 78%
    22:00 +16°C° 0.1 mm 2 mps 710 mmHg 79%
    23:00 +15°C° 0.1 mm 2 mps 710 mmHg 79%
    Show more